Weather in Raciborz

Poland     50°05′24″N   18°13′04″E
temp.,
°C
wind,
m/s
gust,
m/s
humid.,
%
clouds,
%
prec.,
mm/h
press.,
hPa
HPBL,
m
17 june, thu
thu1723:00+18e22795 0.0 101835
02:00+16ese22850 0.0 101832
05:00+15ese11880 0.0 101811
08:00+20se12703 0.0 1018261
11:00+25ese33525 0.0 1019952
14:00+27e23420 0.0 10181681
17:00+27ese44512 0.0 10171383
20:00+22e6116699 0.0 1018343
18 june, fri
fri1823:00+18e357685 0.0 101999
02:00+16sse118862 0.0 101811
05:00+16s11885 0.0 101811
08:00+21se23710 0.0 1018261
11:00+26ese22530 0.0 1018937
14:00+29e22440 0.0 10161732
17:00+29e33451 0.0 10151509
20:00+23e510710 0.0 1016305
19 june, sat
sat1923:00+19e23870 0.0 101653
02:00+18s01930 0.0 101612
05:00+17ssw11930 0.0 101611
08:00+22ese22770 0.0 1016307
11:00+27ene22570 0.0 1016898
14:00+30ene23420 0.0 10141720
17:00+29e44440 0.0 10131387
20:00+24ese510700 0.0 1014299
20 june, sun
sun2023:00+21e37790 0.0 1014180
02:00+18ne11910 0.0 101418
05:00+16e22946 0.0 101446
08:00+21ese237610 0.0 1014341
11:00+26ese125695 0.0 1013894
14:00+29e23445 0.0 10111410
17:00+29e22467 0.0 10091541
20:00+25ese476789 0.0 1009255
21 june, mon
mon2123:00+23s126894 0.0 100929
02:00+21s127319 0.0 100917
05:00+19sse12811 0.0 100914
08:00+24s23644 0.0 1009292
11:00+28sse23460 0.0 10081347
14:00+30ese12398 0.0 10072295
17:00+30wsw324435 0.0 10061958
20:00+25s0164100 0.3 100620